Regional Weather Roundup
Issued by NWS

Home | Current Version | Previous Version | Graphics & Text | Print | Product List | Glossary On
Versions: 1 2 3 4 5 6 7 8 9 10 11 12 13 14 15 16 17 18 19 20 21 22 23 24 25 26 27 28 29 30 31 32 33 34 35 36 37 38 39 40 41 42 43 44 45 46 47 48 49 50
000
ASUS45 KBOU 221907
RWRCO

WEATHER ROUNDUP FOR COLORADO
NATIONAL WEATHER SERVICE DENVER/BOULDER CO
100 PM MDT FRI MAY 22 2015

NOTE: "FAIR" INDICATES FEW OR NO CLOUDS BELOW 12000 FEET WITH NO
SIGNIFICANT WEATHER AND/OR OBSTRUCTIONS TO VISIBILITY.

COZ001>005-013-030-031-222000-
...NORTHWEST COLORADO...

CITY           SKY/WX    TMP DP  RH WIND       PRES   REMARKS
CRAIG          CLOUDY    55  42  61 SW9       30.01F
HAYDEN         CLOUDY    48  37  66 E3        30.03F
MEEKER         PTSUNNY   55  43  63 N5        29.99F
MOUNT WERNER   NOT AVBL
STEAMBOAT SPGS CLOUDY    46  38  75 N6        30.04F
WALDEN         CLOUDY    43  32  65 S8        30.08S
$$

COZ006>008-011-222000-
...WEST CENTRAL VALLEYS...

CITY           SKY/WX    TMP DP  RH WIND       PRES   REMARKS
GRAND JUNCTION MOSUNNY   57  48  72 NE9       29.92S THUNDER
MONTROSE       PTSUNNY   65  32  29 VRB6      29.96F
EAGLE          PTSUNNY   54  39  58 CALM      30.05F
RIFLE          PTSUNNY   58  43  57 S8        29.98F
DELTA          MOSUNNY   69  38  31 E5        29.93F
NUCLA          PTSUNNY   64  28  25 SW10G17   29.99F
$$

COZ017>023-064>068-222000-
...SOUTHWEST COLORADO...

CITY           SKY/WX    TMP DP  RH WIND       PRES   REMARKS
DURANGO        LGT RAIN  56  36  47 E5        30.05F
CORTEZ         PTSUNNY   64  32  30 S14       29.99F
PAGOSA SPRINGS MOSUNNY   55  32  42 CALM      30.11F
TELLURIDE      MOSUNNY   48  29  48 S12G20    30.12S
WOLF CREEK PAS NOT AVBL
$$

COZ009-010-012-014-032>034-037-058>063-222000-
...CENTRAL COLORADO...

CITY           SKY/WX    TMP DP  RH WIND       PRES   REMARKS
ASPEN          MOSUNNY   53  35  50 N13G20    30.02F
BUENA VISTA    CLOUDY    56  29  35 SE13G21   30.03F
COPPER MTN     MOSUNNY   41  25  52 SW8G28    30.20S
BERTHOUD PASS  HAZE      27  19  74 NW22G32   30.21R THUNDER VSB<1/4
COTTONWOOD PAS PTSUNNY   50  28  43 N7        30.11F
GUNNISON       MOSUNNY   57  21  24 SW8       30.04F
KREMMLING      CLOUDY    52  36  54 W7G16     30.07F
LEADVILLE      MOSUNNY   49  22  34 S10G25    30.09F
MONARCH PASS   MOSUNNY   34  27  75 MISG      30.30F
SALIDA         PTSUNNY   54  38  54 SE9       30.10F
SUNLIGHT       LGT RAIN  39  34  81 NW3       30.18F
WILKERSON PASS PTSUNNY   37  32  81 SW12G18   30.19S
$$

COZ069>075-222000-
...SAN LUIS VALLEY/SANGRE DE CRISTO MOUNTAINS...

CITY           SKY/WX    TMP DP  RH WIND       PRES   REMARKS
ALAMOSA        PTSUNNY   59  31  34 S15G23    30.08F
LA VETA PASS   SUNNY    N/A N/A N/A MISG      30.16S
SAGUACHE       PTSUNNY   57  32  38 S13G20    30.07F
$$

COZ035-036-038>040-222000-
...NORTHERN COLORADO FRONT RANGE...

CITY           SKY/WX    TMP DP  RH WIND       PRES   REMARKS
DENVER INTL AP LGT RAIN  52  47  83 E8        30.00F
DMNS CITY PARK   N/A     55  43  63 N7        29.99F
AURORA         PTSUNNY   55  44  68 N6        30.01F
FRONT RANGE AP CLOUDY    54  48  82 E5        30.02F
ERIE MUNI ARPT LGT RAIN  51  48  87 E6        30.01R
BOULDER MUN AP CLOUDY    50  46  87 NE6       30.01S
CENTENNIAL     PTSUNNY   54  45  71 N8        30.00F
BROOMFIELD     NOT AVBL
FORT COLLINS   CLOUDY    48  46  93 E10       30.03S
LONGMONT       CLOUDY    54  48  80 NE6       30.03S
$$

COZ041-046-047-076>085-087-088-222000-
...PIKES PEAK/PALMER DIVIDE AND SOUTHERN FOOTHILLS...

CITY           SKY/WX    TMP DP  RH WIND       PRES   REMARKS
COLO. SPRINGS  MOSUNNY   58  46  64 S5        30.01F
A. F. ACADEMY  MOSUNNY   55  44  65 NW5       30.00F
ELLICOTT       NOT AVBL
FALCON         MOSUNNY   57  41  55 S6        30.04S
FORT CARSON    PTSUNNY   58  49  71 VRB5      29.98F
LIMON          PTSUNNY   55  45  68 VRB5      30.00F
MONUMENT HILL  NOT AVBL
TRINIDAD       SUNNY     67  42  40 S13       29.99F
$$

COZ042>045-048>051-090-091-222000-
...NORTHEAST COLORADO...

CITY           SKY/WX    TMP DP  RH WIND       PRES   REMARKS
GREELEY ARPT   CLOUDY    48  48 100 SE12      30.03S
AKRON          CLOUDY    50  48  93 E14G22    30.01F
BURLINGTON     CLOUDY    51  48  89 S21       30.01F
WRAY           LGT RAIN N/A N/A N/A SE17G23   30.05F
STERLING       LGT RAIN  50  46  87 E12       30.03S
HOLYOKE        NOT AVBL
FORT MORGAN    DRIZZLE   51  47  88 E13       30.03S
$$

COZ086-089-092>099-222000-
...SOUTHEAST COLORADO...

CITY           SKY/WX    TMP DP  RH WIND       PRES   REMARKS
PUEBLO         SUNNY     63  50  62 VRB5      29.95F
LA JUNTA       SUNNY     66  51  58 SE6       29.96F
LAMAR          CLOUDY    71  52  50 SW13G21   29.94F
SPRINGFIELD      N/A     64  51  62 S26G32    30.01F
$$


USA.gov is the U.S. government's official web portal to all federal, state and local government web resources and services.